SAS2305 ENGM-ENKB

Flight info

Callsign SAS2305
Flight time N/A
Altitude 32000
Route EVTOG DCT PIGED DCT VEPUL
Aircraft E195/M-SDE3FGIRWY/EB1

Departure

Time N/A
Airport Oslo-Gardermoen International Airport (ENGM)

Arrival

Time 2026-04-16 03:51
Airport Kristiansund Airport, Kvernberget (ENKB)
Time Latitude Longitude Altitude Speed Heading
2026-04-16 03:31 61.84246 8.78327 27634 ft 430 kts 335°
2026-04-16 03:31 61.86850 8.75283 27065 ft 428 kts 335°
2026-04-16 03:32 61.89418 8.72276 26491 ft 427 kts 335°
2026-04-16 03:32 61.92010 8.69235 25930 ft 423 kts 335°
2026-04-16 03:34 62.09370 8.48714 22148 ft 401 kts 335°
2026-04-16 03:34 62.11682 8.45960 21635 ft 397 kts 335°
2026-04-16 03:34 62.14068 8.43113 21121 ft 394 kts 335°
2026-04-16 03:34 62.16457 8.40258 20591 ft 391 kts 335°
2026-04-16 03:35 62.18701 8.37571 20107 ft 388 kts 335°
2026-04-16 03:35 62.21042 8.34819 19634 ft 384 kts 335°
2026-04-16 03:35 62.23309 8.32233 19154 ft 382 kts 335°
2026-04-16 03:35 62.25629 8.29579 18650 ft 378 kts 335°
2026-04-16 03:36 62.27966 8.26902 18176 ft 376 kts 335°
2026-04-16 03:36 62.30224 8.24312 17688 ft 373 kts 335°
2026-04-16 03:36 62.32432 8.21774 17194 ft 371 kts 334°
2026-04-16 03:36 62.34691 8.19173 16693 ft 369 kts 334°
2026-04-16 03:37 62.36886 8.16642 16207 ft 366 kts 334°
2026-04-16 03:37 62.39145 8.14031 15706 ft 362 kts 334°
2026-04-16 03:37 62.41261 8.11583 15260 ft 360 kts 334°
2026-04-16 03:37 62.43155 8.09388 14826 ft 357 kts 334°
2026-04-16 03:38 62.45547 8.06611 14307 ft 354 kts 334°
2026-04-16 03:38 62.47720 8.04084 13836 ft 352 kts 334°
2026-04-16 03:38 62.49833 8.01624 13366 ft 349 kts 333°
2026-04-16 03:38 62.51977 7.99122 12911 ft 347 kts 333°
2026-04-16 03:39 62.54080 7.96664 12480 ft 344 kts 333°
2026-04-16 03:39 62.56158 7.94231 12115 ft 338 kts 333°
2026-04-16 03:39 62.58167 7.91877 11701 ft 330 kts 333°
2026-04-16 03:39 62.60159 7.89537 11287 ft 322 kts 332°
2026-04-16 03:40 62.62096 7.87258 10877 ft 315 kts 332°
2026-04-16 03:40 62.63996 7.85022 10470 ft 309 kts 332°
2026-04-16 03:40 62.65847 7.82839 10066 ft 303 kts 332°
2026-04-16 03:40 62.67650 7.80708 9677 ft 297 kts 332°
2026-04-16 03:41 62.69443 7.78587 9274 ft 292 kts 332°
2026-04-16 03:41 62.71164 7.76550 8907 ft 287 kts 332°
2026-04-16 03:41 62.72888 7.74505 8522 ft 282 kts 332°
2026-04-16 03:41 62.74591 7.72482 8149 ft 277 kts 332°
2026-04-16 03:42 62.76268 7.70489 7792 ft 272 kts 332°
2026-04-16 03:42 62.77926 7.68599 7364 ft 270 kts 342°
2026-04-16 03:42 62.79750 7.68046 7088 ft 260 kts 359°
2026-04-16 03:42 62.81508 7.67899 6697 ft 250 kts 359°
2026-04-16 03:43 62.83239 7.67770 6456 ft 252 kts 359°
2026-04-16 03:43 62.84949 7.67648 6043 ft 251 kts 359°
2026-04-16 03:43 62.86606 7.67532 5575 ft 245 kts 360°
2026-04-16 03:43 62.88307 7.67416 5062 ft 245 kts 360°
2026-04-16 03:44 62.89926 7.67304 5170 ft 220 kts 360°
2026-04-16 03:44 62.91388 7.67291 5103 ft 202 kts
2026-04-16 03:44 62.92757 7.67306 4796 ft 194 kts
2026-04-16 03:44 62.94053 7.67321 4456 ft 186 kts
2026-04-16 03:45 62.95335 7.67336 4272 ft 177 kts
2026-04-16 03:45 62.96469 7.67347 4293 ft 154 kts
2026-04-16 03:45 62.97477 7.67358 4162 ft 136 kts
2026-04-16 03:45 62.98393 7.67368 3829 ft 131 kts
2026-04-16 03:46 62.99307 7.67380 3416 ft 132 kts
2026-04-16 03:46 63.00219 7.67393 3007 ft 131 kts
2026-04-16 03:46 63.01120 7.67404 2620 ft 130 kts
2026-04-16 03:46 63.02014 7.67416 2233 ft 130 kts
2026-04-16 03:47 63.02911 7.67426 1846 ft 129 kts
2026-04-16 03:47 63.03806 7.67438 1465 ft 128 kts
2026-04-16 03:47 63.04678 7.67448 1103 ft 126 kts
2026-04-16 03:47 63.05535 7.67455 782 ft 119 kts
2026-04-16 03:48 63.06329 7.67443 488 ft 112 kts
2026-04-16 03:48 63.06850 7.67498 349 ft 124 kts 10°
2026-04-16 03:48 63.07390 7.67843 559 ft 112 kts 30°
2026-04-16 03:48 63.08019 7.68938 748 ft 124 kts 51°
2026-04-16 03:49 63.08580 7.70331 877 ft 119 kts 48°
2026-04-16 03:49 63.09158 7.71650 721 ft 118 kts 49°
2026-04-16 03:49 63.09641 7.73108 661 ft 119 kts 62°
2026-04-16 03:49 63.09995 7.74782 650 ft 119 kts 71°
2026-04-16 03:50 63.10257 7.76518 618 ft 120 kts 73°
2026-04-16 03:50 63.10541 7.78265 460 ft 121 kts 71°
2026-04-16 03:50 63.10816 7.80004 268 ft 121 kts 72°
2026-04-16 03:50 63.11080 7.81756 184 ft 118 kts 71°
2026-04-16 03:51 63.11292 7.83199 207 ft 74 kts 70°
2026-04-16 03:51 63.11401 7.83891 195 ft 17 kts 70°
2026-04-16 03:51 63.11433 7.84142 171 ft 16 kts 92°
2026-04-16 03:51 63.11461 7.84182 167 ft 1 kts 251°
2026-04-16 03:52 63.11463 7.84196 166 ft 0 kts 232°
2026-04-16 03:52 63.11440 7.84076 178 ft 17 kts 250°
2026-04-16 03:52 63.11396 7.83819 200 ft 14 kts 251°
2026-04-16 03:52 63.11365 7.83615 209 ft 14 kts 251°
2026-04-16 03:53 63.11327 7.83381 211 ft 15 kts 251°
2026-04-16 03:53 63.11336 7.83272 212 ft 5 kts 327°
2026-04-16 03:53 63.11359 7.83247 214 ft 4 kts 339°
2026-04-16 03:53 63.11391 7.83225 217 ft 4 kts 343°
2026-04-16 03:54 63.11415 7.83179 220 ft 5 kts 283°
2026-04-16 03:54 63.11396 7.83002 215 ft 15 kts 253°
2026-04-16 03:54 63.11360 7.82809 207 ft 11 kts 232°
2026-04-16 03:54 63.11319 7.82697 203 ft 6 kts 252°
2026-04-16 03:55 63.11331 7.82634 205 ft 2 kts 330°
2026-04-16 03:55 63.11338 7.82626 205 ft 0 kts 335°
2026-04-16 03:55 63.11341 7.82624 205 ft 0 kts 338°
2026-04-16 03:55 63.11345 7.82620 206 ft 0 kts 340°
2026-04-16 03:56 63.11350 7.82616 206 ft 0 kts 340°